TimeMDT,TemperatureF,Dew PointF,Humidity,Sea Level PressureIn,VisibilityMPH,Wind Direction,Wind SpeedMPH,Gust SpeedMPH,PrecipitationIn,Events,Conditions,WindDirDegrees,DateUTC
12:53 AM,52.0,37.9,59,29.66,10.0,NNW,4.6,-,N/A,,Clear,340,2013-10-03 06:53:00
1:53 AM,55.9,41.0,57,29.66,10.0,WNW,4.6,-,N/A,,Clear,290,2013-10-03 07:53:00
2:53 AM,54.0,42.1,64,29.65,10.0,Calm,Calm,-,N/A,,Clear,0,2013-10-03 08:53:00
3:53 AM,51.1,41.0,68,29.65,10.0,SSW,3.5,-,N/A,,Clear,210,2013-10-03 09:53:00
4:53 AM,48.0,39.0,71,29.66,10.0,NW,3.5,-,N/A,,Clear,310,2013-10-03 10:53:00
5:53 AM,46.9,39.9,77,29.68,10.0,Calm,Calm,-,N/A,,Clear,0,2013-10-03 11:53:00
6:53 AM,42.1,37.0,82,29.71,10.0,Calm,Calm,-,N/A,,Clear,0,2013-10-03 12:53:00
7:53 AM,48.0,37.0,66,29.71,10.0,Calm,Calm,-,N/A,,Clear,0,2013-10-03 13:53:00
8:53 AM,53.1,37.9,57,29.71,10.0,Calm,Calm,-,N/A,,Clear,0,2013-10-03 14:53:00
9:53 AM,57.0,37.9,49,29.70,10.0,East,6.9,-,N/A,,Clear,100,2013-10-03 15:53:00
10:53 AM,63.0,44.1,50,29.68,10.0,SE,8.1,-,N/A,,Clear,130,2013-10-03 16:53:00
11:53 AM,66.9,41.0,39,29.65,10.0,ESE,10.4,-,N/A,,Clear,120,2013-10-03 17:53:00
12:53 PM,71.1,39.0,31,29.60,10.0,ESE,10.4,-,N/A,,Clear,120,2013-10-03 18:53:00
1:53 PM,75.9,36.0,23,29.55,10.0,ESE,15.0,-,N/A,,Clear,110,2013-10-03 19:53:00
2:53 PM,78.1,35.1,21,29.52,10.0,East,15.0,-,N/A,,Clear,100,2013-10-03 20:53:00
3:53 PM,80.1,34.0,19,29.48,10.0,ESE,19.6,26.5,N/A,,Clear,110,2013-10-03 21:53:00
4:53 PM,79.0,34.0,20,29.48,10.0,ESE,18.4,24.2,N/A,,Clear,120,2013-10-03 22:53:00
5:53 PM,77.0,33.1,20,29.49,10.0,ESE,18.4,-,N/A,,Clear,110,2013-10-03 23:53:00
6:53 PM,72.0,37.0,28,29.52,10.0,SE,13.8,-,N/A,,Clear,130,2013-10-04 00:53:00
7:53 PM,69.1,39.0,33,29.55,10.0,ESE,9.2,-,N/A,,Clear,110,2013-10-04 01:53:00
8:53 PM,66.9,39.0,36,29.57,10.0,NNE,4.6,-,N/A,,Clear,30,2013-10-04 02:53:00
9:26 PM,62.6,48.2,59,29.70,10.0,East,16.1,25.3,N/A,,Clear,80,2013-10-04 03:26:00
10:53 PM,55.9,48.0,75,29.60,10.0,Variable,5.8,-,N/A,,Clear,0,2013-10-04 04:53:00
11:53 PM,54.0,48.0,80,29.58,10.0,NE,10.4,-,N/A,,Clear,40,2013-10-04 05:53:00